Location: Atlantic Beach
(40.5890°N, 73.7290°W)
Time: 05:05:25
(UTC+00:00)

N. Korean satellite - Pass Details

Date: 29 January 2021
Orbit: 451 x 502 km, 97.2° (Epoch: 06 March)

Event Time Altitude Azimuth Distance (km) Brightness Sun altitude
Rises 09:15:16 0° 36° (NE) 2,483 10.7 -32.7°
Reaches altitude 10° 09:18:51 10° 77° (ENE) 1,593 10.0 -32.1°
Maximum altitude 09:19:42 11° 91° (E) 1,546 10.0 -31.9°
Drops below altitude 10° 09:20:32 10° 106° (ESE) 1,586 9.9 -31.7°
Sets 09:24:04 0° 146° (SE) 2,447 10.5 -31.1°
